Date String (YYYY-MM-DD hh:mm:ss) UTC,Instrument flags,absolute air pressure of the measurement (hPa),sample flow rate (lpm),inlet stack bypass flow (lpm),air temperature of the measurement (°C),ambient temperature measured by the external sensor (°C),aerosol sample conditioner tube jacket temperature (°C),OPC LED temperature (°C),internal box temperature (°C),relative humidity of the measurement (%),span deviation,mass concentration of particles derived from Lorenz-Mie calculation of OPC scattering (μg/m³),mass concentration of particles derived from Lorenz-Mie calculation of OPC scattering (μg/m³),mass concentration of particles derived from Lorenz-Mie calculation of OPC scattering (μg/m³)
DateTimeUTC,F1_M11,P_M11,Q1_M11,Q2_M11,T1_M11,T2_M11,T3_M11,T4_M11,T5_M11,U1_M11,ZSPAN_M11,X0_M11,X2_M11,X1_M11
2023-06-06 11:00:00,SystemResetWarning,0832.0,5.00,000.00,029.0,027.3,000.0,037.6,030.4,22.2,0000.0,0004.54,0002.86,0002.37
2023-06-06 11:01:00,SystemResetWarning,0832.0,4.99,000.00,029.0,027.3,000.0,037.6,030.5,21.9,0000.0,0004.32,0002.72,0002.26
2023-06-06 11:02:00,SystemResetWarning,0832.0,5.00,000.00,029.0,027.3,000.0,037.6,030.5,21.8,0000.0,0004.02,0002.55,0002.15
2023-06-06 11:03:00,SystemResetWarning,0832.0,5.00,000.00,029.0,027.3,000.0,037.6,030.5,21.8,0000.0,0003.87,0002.45,0002.05
2023-06-06 11:04:00,SystemResetWarning,0832.0,5.00,000.00,029.0,027.3,000.0,037.6,030.5,21.9,0000.0,0003.77,0002.37,0001.97
2023-06-06 11:05:00,SystemResetWarning,0832.0,5.01,000.00,029.0,027.2,000.0,037.6,030.4,21.9,0000.0,0003.86,0002.37,0001.94
2023-06-06 11:06:00,SystemResetWarning,0832.0,5.01,000.00,029.0,027.2,000.0,037.6,030.4,21.9,0000.0,0003.63,0002.35,0001.92
2023-06-06 11:07:00,SystemResetWarning,0832.0,5.00,000.00,029.0,027.2,000.0,037.6,030.4,21.7,0000.0,0004.62,0002.28,0001.86
2023-06-06 11:08:00,SystemResetWarning,0832.0,4.98,000.00,029.0,027.2,000.0,037.6,030.4,21.8,0000.0,0004.59,0002.24,0001.84
2023-06-06 11:09:00,SystemResetWarning,0832.0,5.00,000.00,029.0,027.2,000.0,037.6,030.4,21.8,0000.0,0004.55,0002.24,0001.82
2023-06-06 11:10:00,SystemResetWarning,0832.0,5.00,000.00,029.0,027.2,000.0,037.6,030.4,21.8,0000.0,0004.56,0002.26,0001.81
2023-06-06 11:11:00,SystemResetWarning,0832.0,5.00,000.00,029.0,027.2,000.0,037.6,030.4,21.8,0000.0,0004.65,0002.28,0001.79
2023-06-06 11:12:00,SystemResetWarning,0832.0,5.01,000.00,029.0,027.2,000.0,037.6,030.4,21.9,0000.0,0004.80,0002.32,0001.80
2023-06-06 11:13:00,SystemResetWarning,0832.0,4.99,000.00,029.0,027.2,000.0,037.6,030.4,21.9,0000.0,0004.90,0002.34,0001.81
2023-06-06 11:14:00,SystemResetWarning,0832.0,5.00,000.00,029.0,027.2,000.0,037.6,030.4,21.9,0000.0,0004.90,0002.34,0001.82
2023-06-06 11:15:00,SystemResetWarning,0832.0,5.01,000.00,029.0,027.2,000.0,037.6,030.5,21.8,0000.0,0005.97,0002.34,0001.85
2023-06-06 11:16:00,SystemResetWarning,0832.0,5.00,000.00,029.0,027.2,000.0,037.6,030.5,21.9,0000.0,0006.06,0002.34,0001.84
2023-06-06 11:17:00,SystemResetWarning,0832.0,5.00,000.00,029.0,027.2,000.0,037.6,030.4,22.0,0000.0,0006.22,0002.32,0001.85
2023-06-06 11:18:00,SystemResetWarning,0832.1,4.99,000.00,029.0,027.2,000.0,037.6,030.4,22.0,0000.0,0005.23,0002.33,0001.86
2023-06-06 11:19:00,SystemResetWarning,0832.1,4.99,000.00,029.0,027.2,000.0,037.6,030.4,21.8,0000.0,0004.95,0002.37,0001.87
2023-06-06 11:20:00,SystemResetWarning,0832.1,5.01,000.00,029.0,027.2,000.0,037.6,030.4,21.7,0000.0,0004.95,0002.33,0001.85
2023-06-06 11:21:00,SystemResetWarning,0832.1,5.01,000.00,029.0,027.2,000.0,037.6,030.4,21.8,0000.0,0004.87,0002.29,0001.85
2023-06-06 11:22:00,SystemResetWarning,0832.1,5.00,000.00,029.0,027.2,000.0,037.6,030.4,21.8,0000.0,0005.15,0002.24,0001.83
2023-06-06 11:23:00,SystemResetWarning,0832.0,5.00,000.00,029.0,027.2,000.0,037.6,030.4,21.8,0000.0,0005.21,0002.19,0001.80
2023-06-06 11:24:00,SystemResetWarning,0832.1,5.00,000.00,029.0,027.2,000.0,037.6,030.4,21.8,0000.0,0005.02,0002.13,0001.77
2023-06-06 11:25:00,SystemResetWarning,0832.0,4.99,000.00,029.0,027.2,000.0,037.6,030.4,21.7,0000.0,0005.08,0002.11,0001.75
2023-06-06 11:26:00,SystemResetWarning,0832.0,4.99,000.00,029.0,027.2,000.0,037.6,030.4,21.7,0000.0,0004.09,0002.09,0001.72
2023-06-06 11:27:00,SystemResetWarning,0832.0,5.01,000.00,029.0,027.2,000.0,037.6,030.4,21.8,0000.0,0003.87,0002.07,0001.71
2023-06-06 11:28:00,SystemResetWarning,0832.0,4.98,000.00,028.9,027.1,000.0,037.6,030.4,22.0,0000.0,0003.61,0002.07,0001.70
2023-06-06 11:29:00,SystemResetWarning,0832.0,5.01,000.00,029.0,027.1,000.0,037.6,030.4,22.0,0000.0,0003.67,0002.13,0001.73
2023-06-06 11:30:00,SystemResetWarning,0832.0,5.01,000.00,029.0,027.1,000.0,037.6,030.4,22.1,0000.0,0003.71,0002.13,0001.75
2023-06-06 11:31:00,SystemResetWarning,0832.1,4.99,000.00,028.9,027.1,000.0,037.6,030.4,22.0,0000.0,0003.77,0002.19,0001.79
2023-06-06 11:32:00,SystemResetWarning,0832.0,5.00,000.00,029.0,027.1,000.0,037.5,030.4,22.1,0000.0,0003.80,0002.21,0001.81
2023-06-06 11:33:00,SystemResetWarning,0832.0,4.99,000.00,029.0,027.1,000.0,037.5,030.4,22.1,0000.0,0003.36,0002.21,0001.84
2023-06-06 11:34:00,SystemResetWarning,0832.0,5.01,000.00,028.9,027.1,000.0,037.5,030.3,21.9,0000.0,0003.23,0002.22,0001.85
2023-06-06 11:35:00,SystemResetWarning,0832.0,5.01,000.00,028.9,027.1,000.0,037.5,030.3,21.8,0000.0,0003.35,0002.27,0001.87
2023-06-06 11:36:00,SystemResetWarning,0832.0,4.98,000.00,028.9,027.1,000.0,037.5,030.3,21.9,0000.0,0003.28,0002.28,0001.89
2023-06-06 11:37:00,SystemResetWarning,0832.1,5.00,000.00,028.9,027.1,000.0,037.5,030.4,21.8,0000.0,0003.27,0002.30,0001.90
2023-06-06 11:38:00,SystemResetWarning,0832.1,5.01,000.00,028.9,027.1,000.0,037.5,030.3,22.1,0000.0,0003.41,0002.36,0001.91
2023-06-06 11:39:00,SystemResetWarning,0832.1,5.00,000.00,028.9,027.1,000.0,037.5,030.4,22.2,0000.0,0003.41,0002.34,0001.90
2023-06-06 11:40:00,SystemResetWarning,0832.1,4.99,000.00,028.9,027.1,000.0,037.5,030.4,22.2,0000.0,0003.33,0002.29,0001.87
2023-06-06 11:41:00,SystemResetWarning,0832.1,5.00,000.00,028.9,027.1,000.0,037.5,030.4,22.2,0000.0,0003.49,0002.29,0001.84
2023-06-06 11:42:00,SystemResetWarning,0832.1,4.99,000.00,028.9,027.1,000.0,037.5,030.4,22.1,0000.0,0003.46,0002.26,0001.81
2023-06-06 11:43:00,SystemResetWarning,0832.1,5.02,000.00,028.9,027.1,000.0,037.5,030.4,22.2,0000.0,0003.53,0002.27,0001.81
2023-06-06 11:44:00,SystemResetWarning,0832.2,4.99,000.00,028.9,027.1,000.0,037.5,030.4,22.3,0000.0,0003.51,0002.27,0001.80
2023-06-06 11:45:00,SystemResetWarning,0832.2,5.00,000.00,028.9,027.1,000.0,037.5,030.4,22.5,0000.0,0003.57,0002.28,0001.82
2023-06-06 11:46:00,SystemResetWarning,0832.2,4.99,000.00,028.9,027.1,000.0,037.5,030.4,22.6,0000.0,0003.70,0002.30,0001.85
2023-06-06 11:47:00,SystemResetWarning,0832.1,5.00,000.00,028.9,027.1,000.0,037.5,030.4,22.7,0000.0,0003.82,0002.35,0001.88
2023-06-06 11:48:00,SystemResetWarning,0832.2,5.00,000.00,028.9,027.1,000.0,037.5,030.4,22.7,0000.0,0003.98,0002.40,0001.91
2023-06-06 11:49:00,SystemResetWarning,0832.1,5.01,000.00,028.9,027.1,000.0,037.5,030.4,22.7,0000.0,0003.86,0002.38,0001.96
2023-06-06 11:50:00,SystemResetWarning,0832.2,5.01,000.00,028.9,027.1,000.0,037.5,030.4,22.8,0000.0,0003.85,0002.42,0002.02
2023-06-06 11:51:00,SystemResetWarning,0832.2,5.00,000.00,028.9,027.1,000.0,037.5,030.4,22.8,0000.0,0003.97,0002.47,0002.07
2023-06-06 11:52:00,SystemResetWarning,0832.2,4.99,000.00,028.9,027.1,000.0,037.5,030.4,22.7,0000.0,0003.98,0002.51,0002.12
2023-06-06 11:53:00,SystemResetWarning,0832.2,4.99,000.00,028.9,027.1,000.0,037.5,030.4,22.5,0000.0,0004.04,0002.59,0002.16
2023-06-06 11:54:00,SystemResetWarning,0832.2,5.01,000.00,028.9,027.1,000.0,037.5,030.4,22.4,0000.0,0004.07,0002.61,0002.17
2023-06-06 11:55:00,SystemResetWarning,0832.3,5.01,000.00,028.9,027.1,000.0,037.5,030.4,22.5,0000.0,0004.19,0002.64,0002.18
2023-06-06 11:56:00,SystemResetWarning,0832.3,4.99,000.00,028.9,027.1,000.0,037.5,030.4,22.5,0000.0,0004.23,0002.66,0002.19
2023-06-06 11:57:00,SystemResetWarning,0832.3,5.00,000.00,028.9,027.1,000.0,037.5,030.4,22.5,0000.0,0004.06,0002.65,0002.20
2023-06-06 11:58:00,SystemResetWarning,0832.3,4.99,000.00,028.9,027.1,000.0,037.5,030.4,22.4,0000.0,0004.02,0002.61,0002.17
2023-06-06 11:59:00,SystemResetWarning,0832.3,4.99,000.00,028.9,027.1,000.0,037.5,030.4,22.4,0000.0,0004.03,0002.61,0002.16
